owner,sensor,date,latitude,longitude,vertical_datum,wind_speed,wind_to_direction,wind_speed_of_gust,qcFlag 
TABS,ioos:station:wmo:42047:1,2008-09-01T00:00:00Z,27.8966,-93.5973,4.0,7.455159287,26.87411021,8.54,'11111222,11111222,11111222' 
TABS,ioos:station:wmo:42047:1,2008-09-01T00:30:00Z,27.8966,-93.5973,4.0,7.540424391,36.26171242,9.04,'11111222,11111222,11111222' 
TABS,ioos:station:wmo:42047:1,2008-09-01T01:00:00Z,27.8966,-93.5973,4.0,6.665643255,35.5973378,7.96,'11111222,11111222,11111222' 
TABS,ioos:station:wmo:42047:1,2008-09-01T01:30:00Z,27.8966,-93.5973,4.0,6.857885972,29.81714049,8.49,'11111222,11111222,11111222' 
TABS,ioos:station:wmo:42047:1,2008-09-01T02:00:00Z,27.8966,-93.5973,4.0,8.050093167,29.30319518,9.44,'11111222,11111222,11111222' 
TABS,ioos:station:wmo:42047:1,2008-09-01T02:30:00Z,27.8966,-93.5973,4.0,8.439863743,30.39298111,10.3,'11111222,11111222,11111222' 
TABS,ioos:station:wmo:42047:1,2008-09-01T03:00:00Z,27.8966,-93.5973,4.0,7.969498102,26.21110627,9.22,'11111222,11111222,11111222' 
TABS,ioos:station:wmo:42047:1,2008-09-01T03:30:00Z,27.8966,-93.5973,4.0,6.81692746,16.97271078,8.25,'11111222,11111222,11111222' 
TABS,ioos:station:wmo:42047:1,2008-09-01T04:00:00Z,27.8966,-93.5973,4.0,6.738523577,37.58384628,8.08,'11111222,11111222,11111222' 
TABS,ioos:station:wmo:42047:1,2008-09-01T04:30:00Z,27.8966,-93.5973,4.0,9.591960175,30.7893233,12.92,'11111222,11111222,11111222' 
TABS,ioos:station:wmo:42047:1,2008-09-01T05:00:00Z,27.8966,-93.5973,4.0,10.14176513,28.05559473,12.56,'11111222,11111222,11111222' 
TABS,ioos:station:wmo:42047:1,2008-09-01T05:30:00Z,27.8966,-93.5973,4.0,8.891490314,28.55361181,11.05,'11111222,11111222,11111222' 
TABS,ioos:station:wmo:42047:1,2008-09-01T06:00:00Z,27.8966,-93.5973,4.0,7.950679216,9.995222302,9.77,'11111222,11111222,11111222' 
TABS,ioos:station:wmo:42047:1,2008-09-01T06:30:00Z,27.8966,-93.5973,4.0,6.760983656,10.39556934,8.31,'11111222,11111222,11111222' 
TABS,ioos:station:wmo:42047:1,2008-09-01T07:00:00Z,27.8966,-93.5973,4.0,8.002812006,19.79323062,9.87,'11111222,11111222,11111222' 
TABS,ioos:station:wmo:42047:1,2008-09-01T07:30:00Z,27.8966,-93.5973,4.0,8.755535392,21.78899627,10.67,'11111222,11111222,11111222' 
TABS,ioos:station:wmo:42047:1,2008-09-01T08:00:00Z,27.8966,-93.5973,4.0,7.668376621,16.8278131,9.52,'11111222,11111222,11111222' 
TABS,ioos:station:wmo:42047:1,2008-09-01T08:30:00Z,27.8966,-93.5973,4.0,7.093687335,16.54426746,8.62,'11111222,11111222,11111222' 
TABS,ioos:station:wmo:42047:1,2008-09-01T09:00:00Z,27.8966,-93.5973,4.0,7.874426963,8.397415261,9.54,'11111222,11111222,11111222' 
TABS,ioos:station:wmo:42047:1,2008-09-01T09:30:00Z,27.8966,-93.5973,4.0,7.959327861,6.99978724,9.59,'11111222,11111222,11111222' 
TABS,ioos:station:wmo:42047:1,2008-09-01T10:00:00Z,27.8966,-93.5973,4.0,8.984681408,358.1501276,10.81,'11111222,11111222,11111222' 
TABS,ioos:station:wmo:42047:1,2008-09-01T10:30:00Z,27.8966,-93.5973,4.0,8.657078029,357.6827326,10.45,'11111222,11111222,11111222' 
TABS,ioos:station:wmo:42047:1,2008-09-01T11:00:00Z,27.8966,-93.5973,4.0,8.801931606,350.4518778,10.44,'11111222,11111222,11111222' 
TABS,ioos:station:wmo:42047:1,2008-09-01T11:30:00Z,27.8966,-93.5973,4.0,8.774371772,352.5346161,10.54,'11111222,11111222,11111222' 
TABS,ioos:station:wmo:42047:1,2008-09-01T12:00:00Z,27.8966,-93.5973,4.0,9.629724814,349.2266498,11.85,'11111222,11111222,11111222' 
TABS,ioos:station:wmo:42047:1,2008-09-01T12:30:00Z,27.8966,-93.5973,4.0,10.7274834,346.2485651,13.33,'11111222,11111222,11111222' 
TABS,ioos:station:wmo:42047:1,2008-09-01T13:00:00Z,27.8966,-93.5973,4.0,10.81183148,341.6151579,13.21,'11111222,11111222,11111222' 
TABS,ioos:station:wmo:42047:1,2008-09-01T13:30:00Z,27.8966,-93.5973,4.0,10.31308392,340.8094193,12.47,'11111222,11111222,11111222' 
TABS,ioos:station:wmo:42047:1,2008-09-01T14:00:00Z,27.8966,-93.5973,4.0,10.17705753,330.1851477,12.21,'11111222,11111222,11111222' 
TABS,ioos:station:wmo:42047:1,2008-09-01T14:30:00Z,27.8966,-93.5973,4.0,10.43132302,332.2310811,13.86,'11111222,11111222,11111222' 
TABS,ioos:station:wmo:42047:1,2008-09-01T15:00:00Z,27.8966,-93.5973,4.0,10.98765216,331.8721554,13.77,'11111222,11111222,11111222' 
TABS,ioos:station:wmo:42047:1,2008-09-01T15:30:00Z,27.8966,-93.5973,4.0,11.42473194,328.2018035,13.73,'11111222,11111222,11111222' 
TABS,ioos:station:wmo:42047:1,2008-09-01T16:00:00Z,27.8966,-93.5973,4.0,11.02972801,327.4768796,13.78,'11111222,11111222,11111222' 
TABS,ioos:station:wmo:42047:1,2008-09-01T16:30:00Z,27.8966,-93.5973,4.0,11.28390447,320.2853292,14.12,'11111222,11111222,11111222' 
TABS,ioos:station:wmo:42047:1,2008-09-01T17:00:00Z,27.8966,-93.5973,4.0,11.10280145,320.8484486,13.92,'11111222,11111222,11111222' 
TABS,ioos:station:wmo:42047:1,2008-09-01T17:30:00Z,27.8966,-93.5973,4.0,11.86076304,316.1955158,14.81,'11111222,11111222,11111222' 
TABS,ioos:station:wmo:42047:1,2008-09-01T18:00:00Z,27.8966,-93.5973,4.0,11.47346504,319.311926,14.15,'11111222,11111222,11111222' 
TABS,ioos:station:wmo:42047:1,2008-09-01T18:30:00Z,27.8966,-93.5973,4.0,11.9179906,318.094863,15.26,'11111222,11111222,11111222' 
TABS,ioos:station:wmo:42047:1,2008-09-01T19:00:00Z,27.8966,-93.5973,4.0,11.61486117,313.4649342,14.04,'11111222,11111222,11111222' 
TABS,ioos:station:wmo:42047:1,2008-09-01T19:30:00Z,27.8966,-93.5973,4.0,11.37429119,312.4701207,13.86,'11111222,11111222,11111222' 
TABS,ioos:station:wmo:42047:1,2008-09-01T20:00:00Z,27.8966,-93.5973,4.0,11.84015203,319.1781423,15.04,'11111222,11111222,11111222' 
TABS,ioos:station:wmo:42047:1,2008-09-01T20:30:00Z,27.8966,-93.5973,4.0,11.17709265,318.3365482,14.0,'11111222,11111222,11111222' 
TABS,ioos:station:wmo:42047:1,2008-09-01T21:00:00Z,27.8966,-93.5973,4.0,10.46209348,317.6341021,12.64,'11111222,11111222,11111222' 
TABS,ioos:station:wmo:42047:1,2008-09-01T21:30:00Z,27.8966,-93.5973,4.0,10.2687341,319.8585429,12.43,'11111222,11111222,11111222' 
TABS,ioos:station:wmo:42047:1,2008-09-01T22:00:00Z,27.8966,-93.5973,4.0,8.643176499,312.3271,10.74,'11111222,11111222,11111222' 
TABS,ioos:station:wmo:42047:1,2008-09-01T22:30:00Z,27.8966,-93.5973,4.0,9.424775859,312.9360799,11.6,'11111222,11111222,11111222' 
TABS,ioos:station:wmo:42047:1,2008-09-01T23:00:00Z,27.8966,-93.5973,4.0,8.81544667,309.5225389,10.83,'11111222,11111222,11111222' 
TABS,ioos:station:wmo:42047:1,2008-09-01T23:30:00Z,27.8966,-93.5973,4.0,8.219957421,300.8082822,10.0,'11111222,11111222,11111222' 
TABS,ioos:station:wmo:42047:1,2008-09-02T00:00:00Z,27.8966,-93.5973,4.0,7.927584752,289.9892346,9.62,'11111222,11111222,11111222' 
TABS,ioos:station:wmo:42047:1,2008-09-02T00:30:00Z,27.8966,-93.5973,4.0,7.543374576,287.3539841,9.11,'11111222,11111222,11111222' 
TABS,ioos:station:wmo:42047:1,2008-09-02T01:00:00Z,27.8966,-93.5973,4.0,7.719274577,281.6592654,9.11,'11111222,11111222,11111222' 
TABS,ioos:station:wmo:42047:1,2008-09-02T01:30:00Z,27.8966,-93.5973,4.0,7.359110001,274.1299837,8.95,'11111222,11111222,11111222' 
TABS,ioos:station:wmo:42047:1,2008-09-02T02:00:00Z,27.8966,-93.5973,4.0,7.870406597,269.4175993,9.5,'11111222,11111222,11111222' 
TABS,ioos:station:wmo:42047:1,2008-09-02T02:30:00Z,27.8966,-93.5973,4.0,8.001431122,260.8673199,9.81,'11111222,11111222,11111222' 
TABS,ioos:station:wmo:42047:1,2008-09-02T03:00:00Z,27.8966,-93.5973,4.0,8.45,255.7500006,10.1,'11111222,11111222,11111222' 
TABS,ioos:station:wmo:42047:1,2008-09-02T03:30:00Z,27.8966,-93.5973,4.0,8.78615388,253.4007326,11.37,'11111222,11111222,11111222' 
TABS,ioos:station:wmo:42047:1,2008-09-02T04:00:00Z,27.8966,-93.5973,4.0,8.785465269,250.8638867,10.2,'11111222,11111222,11111222' 
TABS,ioos:station:wmo:42047:1,2008-09-02T04:30:00Z,27.8966,-93.5973,4.0,9.138539271,247.616507,10.98,'11111222,11111222,11111222' 
TABS,ioos:station:wmo:42047:1,2008-09-02T05:00:00Z,27.8966,-93.5973,4.0,9.578815167,246.8878587,11.77,'11111222,11111222,11111222' 
TABS,ioos:station:wmo:42047:1,2008-09-02T05:30:00Z,27.8966,-93.5973,4.0,9.418497757,249.8142442,11.74,'11111222,11111222,11111222' 
TABS,ioos:station:wmo:42047:1,2008-09-02T06:00:00Z,27.8966,-93.5973,4.0,9.819297327,247.1692296,12.47,'11111222,11111222,11111222' 
TABS,ioos:station:wmo:42047:1,2008-09-02T06:30:00Z,27.8966,-93.5973,4.0,9.667083324,242.0565756,12.09,'11111222,11111222,11111222' 
TABS,ioos:station:wmo:42047:1,2008-09-02T07:00:00Z,27.8966,-93.5973,4.0,9.424054329,232.935637,12.14,'11111222,11111222,11111222' 
TABS,ioos:station:wmo:42047:1,2008-09-02T07:30:00Z,27.8966,-93.5973,4.0,9.657846551,235.7176592,11.86,'11111222,11111222,11111222' 
TABS,ioos:station:wmo:42047:1,2008-09-02T08:00:00Z,27.8966,-93.5973,4.0,9.258515,236.9450778,11.07,'11111222,11111222,11111222' 
TABS,ioos:station:wmo:42047:1,2008-09-02T08:30:00Z,27.8966,-93.5973,4.0,9.146239664,238.6388089,11.42,'11111222,11111222,11111222' 
TABS,ioos:station:wmo:42047:1,2008-09-02T09:00:00Z,27.8966,-93.5973,4.0,8.93354353,236.0431909,10.64,'11111222,11111222,11111222' 
TABS,ioos:station:wmo:42047:1,2008-09-02T09:30:00Z,27.8966,-93.5973,4.0,9.273715544,230.2498954,11.34,'11111222,11111222,11111222' 
TABS,ioos:station:wmo:42047:1,2008-09-02T10:00:00Z,27.8966,-93.5973,4.0,9.424356742,232.6316609,11.42,'11111222,11111222,11111222' 
TABS,ioos:station:wmo:42047:1,2008-09-02T10:30:00Z,27.8966,-93.5973,4.0,10.25809436,232.8844299,12.39,'11111222,11111222,11111222' 
TABS,ioos:station:wmo:42047:1,2008-09-02T11:00:00Z,27.8966,-93.5973,4.0,10.43491255,233.8879361,12.84,'11111222,11111222,11111222' 
TABS,ioos:station:wmo:42047:1,2008-09-02T11:30:00Z,27.8966,-93.5973,4.0,10.32048933,236.7411448,12.81,'11111222,11111222,11111222' 
TABS,ioos:station:wmo:42047:1,2008-09-02T12:00:00Z,27.8966,-93.5973,4.0,10.22832342,231.908933,11.95,'11111222,11111222,11111222' 
TABS,ioos:station:wmo:42047:1,2008-09-02T12:30:00Z,27.8966,-93.5973,4.0,10.02210557,232.867209,11.46,'11111222,11111222,11111222' 
TABS,ioos:station:wmo:42047:1,2008-09-02T13:00:00Z,27.8966,-93.5973,4.0,9.849898477,230.313686,11.54,'11111222,11111222,11111222' 
TABS,ioos:station:wmo:42047:1,2008-09-02T13:30:00Z,27.8966,-93.5973,4.0,9.709340863,231.2296907,12.1,'11111222,11111222,11111222' 
TABS,ioos:station:wmo:42047:1,2008-09-02T14:00:00Z,27.8966,-93.5973,4.0,9.750533319,228.0347242,11.87,'11111222,11111222,11111222' 
TABS,ioos:station:wmo:42047:1,2008-09-02T14:30:00Z,27.8966,-93.5973,4.0,9.550628252,227.8434384,11.72,'11111222,11111222,11111222' 
TABS,ioos:station:wmo:42047:1,2008-09-02T15:00:00Z,27.8966,-93.5973,4.0,9.095257006,227.5399592,11.54,'11111222,11111222,11111222' 
TABS,ioos:station:wmo:42047:1,2008-09-02T15:30:00Z,27.8966,-93.5973,4.0,9.989604597,228.5713716,12.37,'11111222,11111222,11111222' 
TABS,ioos:station:wmo:42047:1,2008-09-02T16:00:00Z,27.8966,-93.5973,4.0,10.07794622,228.8623053,11.94,'11111222,11111222,11111222' 
TABS,ioos:station:wmo:42047:1,2008-09-02T16:30:00Z,27.8966,-93.5973,4.0,9.947592674,232.1048984,11.98,'11111222,11111222,11111222' 
TABS,ioos:station:wmo:42047:1,2008-09-02T17:00:00Z,27.8966,-93.5973,4.0,9.533294289,228.9555159,11.2,'11111222,11111222,11111222' 
TABS,ioos:station:wmo:42047:1,2008-09-02T17:30:00Z,27.8966,-93.5973,4.0,9.695070913,234.5723249,11.57,'11111222,11111222,11111222' 
TABS,ioos:station:wmo:42047:1,2008-09-02T18:00:00Z,27.8966,-93.5973,4.0,9.332363045,234.4195835,11.46,'11111222,11111222,11111222' 
TABS,ioos:station:wmo:42047:1,2008-09-02T18:30:00Z,27.8966,-93.5973,4.0,8.534084602,236.1796671,10.67,'11111222,11111222,11111222' 
TABS,ioos:station:wmo:42047:1,2008-09-02T19:00:00Z,27.8966,-93.5973,4.0,8.064645063,237.6106177,9.75,'11111222,11111222,11111222' 
TABS,ioos:station:wmo:42047:1,2008-09-02T19:30:00Z,27.8966,-93.5973,4.0,8.122567328,232.453,9.73,'11111222,11111222,11111222' 
TABS,ioos:station:wmo:42047:1,2008-09-02T20:00:00Z,27.8966,-93.5973,4.0,7.800987117,222.2985034,9.96,'11111222,11111222,11111222' 
TABS,ioos:station:wmo:42047:1,2008-09-02T20:30:00Z,27.8966,-93.5973,4.0,7.835559967,224.1727888,9.19,'11111222,11111222,11111222' 
TABS,ioos:station:wmo:42047:1,2008-09-02T21:00:00Z,27.8966,-93.5973,4.0,8.053881052,218.648818,9.54,'11111222,11111222,11111222' 
TABS,ioos:station:wmo:42047:1,2008-09-02T21:30:00Z,27.8966,-93.5973,4.0,7.974421609,217.4591964,9.61,'11111222,11111222,11111222' 
TABS,ioos:station:wmo:42047:1,2008-09-02T22:00:00Z,27.8966,-93.5973,4.0,8.018989961,215.9697154,9.55,'11111222,11111222,11111222' 
TABS,ioos:station:wmo:42047:1,2008-09-02T22:30:00Z,27.8966,-93.5973,4.0,7.940132241,219.12198,9.38,'11111222,11111222,11111222' 
TABS,ioos:station:wmo:42047:1,2008-09-02T23:00:00Z,27.8966,-93.5973,4.0,8.11249037,220.0498446,9.43,'11111222,11111222,11111222' 
TABS,ioos:station:wmo:42047:1,2008-09-02T23:30:00Z,27.8966,-93.5973,4.0,7.293627355,215.0629398,9.44,'11111222,11111222,11111222' 
TABS,ioos:station:wmo:42047:1,2008-09-03T00:00:00Z,27.8966,-93.5973,4.0,7.737454362,208.6519719,9.57,'11111222,11111222,11111222' 
TABS,ioos:station:wmo:42047:1,2008-09-03T00:30:00Z,27.8966,-93.5973,4.0,7.357886925,207.6099891,8.92,'11111222,11111222,11111222' 
TABS,ioos:station:wmo:42047:1,2008-09-03T01:00:00Z,27.8966,-93.5973,4.0,7.655403321,202.7466807,9.46,'11111222,11111222,11111222' 
TABS,ioos:station:wmo:42047:1,2008-09-03T01:30:00Z,27.8966,-93.5973,4.0,7.116249012,199.4535981,8.76,'11111222,11111222,11111222' 
TABS,ioos:station:wmo:42047:1,2008-09-03T02:00:00Z,27.8966,-93.5973,4.0,7.094145474,201.0666651,8.69,'11111222,11111222,11111222' 
TABS,ioos:station:wmo:42047:1,2008-09-03T02:30:00Z,27.8966,-93.5973,4.0,7.257451343,192.3320385,8.47,'11111222,11111222,11111222' 
TABS,ioos:station:wmo:42047:1,2008-09-03T03:00:00Z,27.8966,-93.5973,4.0,7.535369931,192.025902,9.03,'11111222,11111222,11111222' 
TABS,ioos:station:wmo:42047:1,2008-09-03T03:30:00Z,27.8966,-93.5973,4.0,7.428916476,191.4916227,8.93,'11111222,11111222,11111222' 
TABS,ioos:station:wmo:42047:1,2008-09-03T04:00:00Z,27.8966,-93.5973,4.0,7.517346606,191.7435999,8.85,'11111222,11111222,11111222' 
TABS,ioos:station:wmo:42047:1,2008-09-03T04:30:00Z,27.8966,-93.5973,4.0,7.797897152,190.7913572,9.35,'11111222,11111222,11111222' 
TABS,ioos:station:wmo:42047:1,2008-09-03T05:00:00Z,27.8966,-93.5973,4.0,8.445383354,189.0609903,9.91,'11111222,11111222,11111222' 
TABS,ioos:station:wmo:42047:1,2008-09-03T05:30:00Z,27.8966,-93.5973,4.0,8.846174314,187.0127399,10.39,'11111222,11111222,11111222' 
TABS,ioos:station:wmo:42047:1,2008-09-03T06:00:00Z,27.8966,-93.5973,4.0,8.748588458,187.6857196,10.4,'11111222,11111222,11111222' 
TABS,ioos:station:wmo:42047:1,2008-09-03T06:30:00Z,27.8966,-93.5973,4.0,8.846722557,188.9088438,10.66,'11111222,11111222,11111222' 
TABS,ioos:station:wmo:42047:1,2008-09-03T07:00:00Z,27.8966,-93.5973,4.0,8.624389833,189.3423712,9.88,'11111222,11111222,11111222' 
TABS,ioos:station:wmo:42047:1,2008-09-03T07:30:00Z,27.8966,-93.5973,4.0,9.166356964,194.8550912,10.57,'11111222,11111222,11111222' 
TABS,ioos:station:wmo:42047:1,2008-09-03T08:00:00Z,27.8966,-93.5973,4.0,8.940615191,186.0997697,10.74,'11111222,11111222,11111222' 
TABS,ioos:station:wmo:42047:1,2008-09-03T08:30:00Z,27.8966,-93.5973,4.0,8.456695572,187.2008424,10.3,'11111222,11111222,11111222' 
TABS,ioos:station:wmo:42047:1,2008-09-03T09:00:00Z,27.8966,-93.5973,4.0,8.476585397,192.6756185,10.3,'11111222,11111222,11111222' 
TABS,ioos:station:wmo:42047:1,2008-09-03T09:30:00Z,27.8966,-93.5973,4.0,8.519201841,196.2227145,10.03,'11111222,11111222,11111222' 
TABS,ioos:station:wmo:42047:1,2008-09-03T10:00:00Z,27.8966,-93.5973,4.0,8.726797809,195.4856265,10.35,'11111222,11111222,11111222' 
TABS,ioos:station:wmo:42047:1,2008-09-03T10:30:00Z,27.8966,-93.5973,4.0,8.139047856,201.9322912,9.53,'11111222,11111222,11111222' 
TABS,ioos:station:wmo:42047:1,2008-09-03T11:00:00Z,27.8966,-93.5973,4.0,8.29689701,205.6386661,9.7,'11111222,11111222,11111222' 
TABS,ioos:station:wmo:42047:1,2008-09-03T11:30:00Z,27.8966,-93.5973,4.0,8.346160794,202.6939523,10.04,'11111222,11111222,11111222' 
TABS,ioos:station:wmo:42047:1,2008-09-03T12:00:00Z,27.8966,-93.5973,4.0,8.392359621,208.0003446,10.06,'11111222,11111222,11111222' 
TABS,ioos:station:wmo:42047:1,2008-09-03T12:30:00Z,27.8966,-93.5973,4.0,8.045930648,213.7494501,9.55,'11111222,11111222,11111222' 
TABS,ioos:station:wmo:42047:1,2008-09-03T13:00:00Z,27.8966,-93.5973,4.0,7.988554312,220.3291315,9.84,'11111222,11111222,11111222' 
TABS,ioos:station:wmo:42047:1,2008-09-03T13:30:00Z,27.8966,-93.5973,4.0,7.577783317,230.891562,9.16,'11111222,11111222,11111222' 
TABS,ioos:station:wmo:42047:1,2008-09-03T14:00:00Z,27.8966,-93.5973,4.0,7.611044606,226.4907336,9.41,'11111222,11111222,11111222' 
TABS,ioos:station:wmo:42047:1,2008-09-03T14:30:00Z,27.8966,-93.5973,4.0,7.251158528,223.2677894,8.62,'11111222,11111222,11111222' 
TABS,ioos:station:wmo:42047:1,2008-09-03T15:00:00Z,27.8966,-93.5973,4.0,7.721813259,225.419846,9.01,'11111222,11111222,11111222' 
TABS,ioos:station:wmo:42047:1,2008-09-03T15:30:00Z,27.8966,-93.5973,4.0,7.762074465,216.6190506,9.45,'11111222,11111222,11111222' 
TABS,ioos:station:wmo:42047:1,2008-09-03T16:00:00Z,27.8966,-93.5973,4.0,7.291783047,226.1669745,8.89,'11111222,11111222,11111222' 
TABS,ioos:station:wmo:42047:1,2008-09-03T16:30:00Z,27.8966,-93.5973,4.0,6.514982732,250.7307507,7.85,'11111222,11111222,11111222' 
TABS,ioos:station:wmo:42047:1,2008-09-03T17:00:00Z,27.8966,-93.5973,4.0,6.682110445,245.6980284,8.25,'11111222,11111222,11111222' 
TABS,ioos:station:wmo:42047:1,2008-09-03T17:30:00Z,27.8966,-93.5973,4.0,6.23154074,240.0613144,7.62,'11111222,11111222,11111222' 
TABS,ioos:station:wmo:42047:1,2008-09-03T18:00:00Z,27.8966,-93.5973,4.0,6.599469676,241.6875502,7.96,'11111222,11111222,11111222' 
TABS,ioos:station:wmo:42047:1,2008-09-03T18:30:00Z,27.8966,-93.5973,4.0,6.431617215,242.5983468,7.87,'11111222,11111222,11111222' 
TABS,ioos:station:wmo:42047:1,2008-09-03T19:00:00Z,27.8966,-93.5973,4.0,5.39156749,247.1921732,6.48,'11111222,11111222,11111222' 
TABS,ioos:station:wmo:42047:1,2008-09-03T19:30:00Z,27.8966,-93.5973,4.0,5.832160835,230.4964062,7.71,'11111222,11111222,11111222' 
TABS,ioos:station:wmo:42047:1,2008-09-03T20:00:00Z,27.8966,-93.5973,4.0,6.325575073,221.6035641,7.28,'11111222,11111222,11111222' 
TABS,ioos:station:wmo:42047:1,2008-09-03T20:30:00Z,27.8966,-93.5973,4.0,6.618647898,235.2775527,7.82,'11111222,11111222,11111222' 
TABS,ioos:station:wmo:42047:1,2008-09-03T21:00:00Z,27.8966,-93.5973,4.0,6.261006309,241.2654486,7.23,'11111222,11111222,11111222' 
TABS,ioos:station:wmo:42047:1,2008-09-03T21:30:00Z,27.8966,-93.5973,4.0,5.996432273,233.8181619,7.16,'11111222,11111222,11111222' 
TABS,ioos:station:wmo:42047:1,2008-09-03T22:00:00Z,27.8966,-93.5973,4.0,5.680712983,232.222411,6.62,'11111222,11111222,11111222' 
TABS,ioos:station:wmo:42047:1,2008-09-03T22:30:00Z,27.8966,-93.5973,4.0,5.340458782,232.3791651,6.46,'11111222,11111222,11111222' 
TABS,ioos:station:wmo:42047:1,2008-09-03T23:00:00Z,27.8966,-93.5973,4.0,4.86211888,233.5308509,6.01,'11111222,11111222,11111222' 
TABS,ioos:station:wmo:42047:1,2008-09-03T23:30:00Z,27.8966,-93.5973,4.0,5.071055117,235.1191354,6.23,'11111222,11111222,11111222' 
TABS,ioos:station:wmo:42047:1,2008-09-04T00:00:00Z,27.8966,-93.5973,4.0,5.088152907,231.4633849,6.26,'11111222,11111222,11111222' 
TABS,ioos:station:wmo:42047:1,2008-09-04T00:30:00Z,27.8966,-93.5973,4.0,4.258544352,229.9533511,5.27,'11111222,11111222,11111222' 
TABS,ioos:station:wmo:42047:1,2008-09-04T01:00:00Z,27.8966,-93.5973,4.0,4.450550528,221.1739286,5.42,'11111222,11111222,11111222' 
TABS,ioos:station:wmo:42047:1,2008-09-04T01:30:00Z,27.8966,-93.5973,4.0,4.537190761,222.4097129,5.55,'11111222,11111222,11111222' 
TABS,ioos:station:wmo:42047:1,2008-09-04T02:00:00Z,27.8966,-93.5973,4.0,4.300813876,220.095661,4.88,'11111222,11111222,11111222' 
TABS,ioos:station:wmo:42047:1,2008-09-04T02:30:00Z,27.8966,-93.5973,4.0,4.29830199,211.8783524,4.93,'11111222,11111222,11111222' 
TABS,ioos:station:wmo:42047:1,2008-09-04T03:00:00Z,27.8966,-93.5973,4.0,4.542092029,212.0456325,5.34,'11111222,11111222,11111222' 
TABS,ioos:station:wmo:42047:1,2008-09-04T03:30:00Z,27.8966,-93.5973,4.0,5.031232453,198.1830314,5.87,'11111222,11111222,11111222' 
TABS,ioos:station:wmo:42047:1,2008-09-04T04:00:00Z,27.8966,-93.5973,4.0,4.796832288,204.6418148,5.75,'11111222,11111222,11111222' 
TABS,ioos:station:wmo:42047:1,2008-09-04T04:30:00Z,27.8966,-93.5973,4.0,5.251675923,205.2477295,6.12,'11111222,11111222,11111222' 
TABS,ioos:station:wmo:42047:1,2008-09-04T05:00:00Z,27.8966,-93.5973,4.0,4.950252519,203.1987467,6.26,'11111222,11111222,11111222' 
TABS,ioos:station:wmo:42047:1,2008-09-04T05:30:00Z,27.8966,-93.5973,4.0,5.764173835,191.9144374,6.87,'11111222,11111222,11111222' 
TABS,ioos:station:wmo:42047:1,2008-09-04T06:00:00Z,27.8966,-93.5973,4.0,5.662684876,200.0351371,6.6,'11111222,11111222,11111222' 
TABS,ioos:station:wmo:42047:1,2008-09-04T06:30:00Z,27.8966,-93.5973,4.0,5.537192429,203.1851599,6.65,'11111222,11111222,11111222' 
TABS,ioos:station:wmo:42047:1,2008-09-04T07:00:00Z,27.8966,-93.5973,4.0,5.525984075,208.4202804,6.47,'11111222,11111222,11111222' 
TABS,ioos:station:wmo:42047:1,2008-09-04T07:30:00Z,27.8966,-93.5973,4.0,5.657958996,213.8306294,6.64,'11111222,11111222,11111222' 
TABS,ioos:station:wmo:42047:1,2008-09-04T08:00:00Z,27.8966,-93.5973,4.0,6.044170745,211.7442637,7.1,'11111222,11111222,11111222' 
TABS,ioos:station:wmo:42047:1,2008-09-04T08:30:00Z,27.8966,-93.5973,4.0,6.120923133,222.8153193,7.53,'11111222,11111222,11111222' 
TABS,ioos:station:wmo:42047:1,2008-09-04T09:00:00Z,27.8966,-93.5973,4.0,6.212519618,222.9128051,7.57,'11111222,11111222,11111222' 
TABS,ioos:station:wmo:42047:1,2008-09-04T09:30:00Z,27.8966,-93.5973,4.0,6.201814251,225.718713,7.51,'11111222,11111222,11111222' 
TABS,ioos:station:wmo:42047:1,2008-09-04T10:00:00Z,27.8966,-93.5973,4.0,6.414740837,230.5032979,7.64,'11111222,11111222,11111222' 
TABS,ioos:station:wmo:42047:1,2008-09-04T10:30:00Z,27.8966,-93.5973,4.0,6.706713055,230.5664244,7.86,'11111222,11111222,11111222' 
TABS,ioos:station:wmo:42047:1,2008-09-04T11:00:00Z,27.8966,-93.5973,4.0,6.696036141,233.3184352,8.12,'11111222,11111222,11111222' 
TABS,ioos:station:wmo:42047:1,2008-09-04T11:30:00Z,27.8966,-93.5973,4.0,6.160032467,233.3162127,7.36,'11111222,11111222,11111222' 
TABS,ioos:station:wmo:42047:1,2008-09-04T12:00:00Z,27.8966,-93.5973,4.0,6.419384706,239.480222,7.62,'11111222,11111222,11111222' 
TABS,ioos:station:wmo:42047:1,2008-09-04T12:30:00Z,27.8966,-93.5973,4.0,6.372950651,243.837079,7.52,'11111222,11111222,11111222' 
TABS,ioos:station:wmo:42047:1,2008-09-04T13:00:00Z,27.8966,-93.5973,4.0,6.379420036,240.8233357,7.39,'11111222,11111222,11111222' 
TABS,ioos:station:wmo:42047:1,2008-09-04T13:30:00Z,27.8966,-93.5973,4.0,5.839871574,239.6588872,7.15,'11111222,11111222,11111222' 
TABS,ioos:station:wmo:42047:1,2008-09-04T14:00:00Z,27.8966,-93.5973,4.0,5.417757839,231.670608,6.41,'11111222,11111222,11111222' 
TABS,ioos:station:wmo:42047:1,2008-09-04T14:30:00Z,27.8966,-93.5973,4.0,4.886685994,241.3896072,5.64,'11111222,11111222,11111222' 
TABS,ioos:station:wmo:42047:1,2008-09-04T15:00:00Z,27.8966,-93.5973,4.0,4.557477372,255.3844492,5.48,'11111222,11111222,11111222' 
TABS,ioos:station:wmo:42047:1,2008-09-04T15:30:00Z,27.8966,-93.5973,4.0,3.814773912,259.4265013,4.8,'11111222,11111222,11111222' 
TABS,ioos:station:wmo:42047:1,2008-09-04T16:00:00Z,27.8966,-93.5973,4.0,8.289420969,351.1170171,9.84,'11111222,11111222,11111222' 
TABS,ioos:station:wmo:42047:1,2008-09-04T16:30:00Z,27.8966,-93.5973,4.0,0.602079729,41.63323152,1.71,'11111222,11111222,11111222' 
TABS,ioos:station:wmo:42047:1,2008-09-04T17:00:00Z,27.8966,-93.5973,4.0,1.30510536,300.8883942,3.97,'11111222,11111222,11111222' 
TABS,ioos:station:wmo:42047:1,2008-09-04T17:30:00Z,27.8966,-93.5973,4.0,4.714000424,306.8941201,5.59,'11111222,11111222,11111222' 
TABS,ioos:station:wmo:42047:1,2008-09-04T18:00:00Z,27.8966,-93.5973,4.0,2.546998233,254.9816745,3.62,'11111222,11111222,11111222' 
TABS,ioos:station:wmo:42047:1,2008-09-04T18:30:00Z,27.8966,-93.5973,4.0,5.254607502,267.6004435,6.1,'11111222,11111222,11111222' 